EW2804 Weather Reports


time (UTC)temp
F
wind
direction
speed
knots
gust
knots
rain 1hr
in
rain 24hr
in
rain mn
in
humidity
%
barometer
mb
20260505100528 71 218 1.7 10.4 0.00 0.00 0.00 79 1001.3
20260505095507 72 173 2.6 10.4 0.00 0.00 0.00 78 1001.4
20260505094459 72 248 2.6 8.7 0.00 0.00 0.00 78 1001.4
20260505093509 72 220 1.7 8.7 0.00 0.00 0.00 78 1001.4
20260505092531 72 150 2.6 8.7 0.00 0.00 0.00 78 1001.6
20260505091456 72 240 2.6 7.8 0.00 0.00 0.00 77 1001.6
20260505090419 72 217 2.6 7.0 0.00 0.00 0.00 77 1001.8
20260505085412 73 188 1.7 7.8 0.00 0.00 0.00 76 1001.9
20260505083259 73 191 2.6 8.7 0.00 0.00 0.00 75 1001.9
20260505082304 73 163 1.7 8.7 0.00 0.00 0.00 75 1001.8
20260505081316 73 198 1.7 8.7 0.00 0.00 0.00 74 1001.9
20260505075137 74 140 1.7 10.4 0.00 0.00 0.00 72 1002.0
20260505074114 74 207 1.7 7.8 0.00 0.00 0.00 72 1002.2
20260505073122 74 111 1.7 11.3 0.00 0.00 0.00 71 1002.5
20260505072125 74 238 1.7 11.3 0.00 0.00 0.00 71 1002.7
20260505071136 74 144 1.7 7.0 0.00 0.00 0.00 71 1002.9
20260505070112 74 67 1.7 11.3 0.00 0.00 0.00 70 1002.9
20260505065114 74 248 1.7 11.3 0.00 0.00 0.00 69 1003.1
20260505064048 75 239 1.7 7.0 0.00 0.00 0.00 69 1003.2
20260505063105 75 188 1.7 7.0 0.00 0.00 0.00 69 1003.3
20260505062038 75 214 0.9 6.1 0.00 0.00 0.00 68 1003.3
20260505061045 75 181 1.7 7.0 0.00 0.00 0.00 68 1003.4
20260505055044 74 161 0.9 4.3 0.00 0.00 0.00 69 1003.4
20260505054013 75 167 0.9 6.1 0.00 0.00 0.00 69 1003.4
20260505051905 75 148 1.7 7.8 0.00 0.00 0.00 68 1003.4
20260505050850 75 96 2.6 7.0 0.00 0.00 0.00 68 1003.5
20260505041503 75 145 1.7 7.0 0.00 0.00 0.00 67 1003.6
20260505040500 75 196 1.7 7.8 0.00 0.00 0.00 67 1003.8
20260505035502 75 139 2.6 7.8 0.00 0.00 0.00 67 1003.7
20260505034522 75 178 1.7 13.9 0.00 0.00 0.00 67 1003.7
20260505033526 75 230 1.7 13.9 0.00 0.00 0.00 67 1003.7
20260505032454 75 127 1.7 9.6 0.00 0.00 0.00 66 1003.6
20260505031514 75 157 2.6 9.6 0.00 0.00 0.00 66 1003.7
20260505030526 75 188 2.6 9.6 0.00 0.00 0.00 66 1003.8
20260505025500 76 141 2.6 8.7 0.00 0.00 0.00 66 1003.8
20260505015937 76 132 0.9 6.1 0.00 0.00 0.00 65 1003.7
20260505014915 76 159 1.7 6.1 0.00 0.00 0.00 64 1003.7
20260505013923 76 229 1.7 7.8 0.00 0.00 0.00 64 1003.6
20260505012858 77 171 2.6 9.6 0.00 0.00 0.00 64 1003.7
20260505011845 77 194 2.6 9.6 0.00 0.00 0.00 63 1003.7
20260505010903 77 198 2.6 10.4 0.00 0.00 0.00 63 1003.7
20260505005845 77 128 3.5 10.4 0.00 0.00 0.00 62 1003.7
20260505004847 77 167 1.7 7.8 0.00 0.00 0.00 63 1003.7
20260505001508 78 226 2.6 11.3 0.00 0.00 0.00 60 1003.7
20260505000442 79 87 2.6 13.9 0.00 0.00 0.00 60 1004.0
20260504235408 79 129 2.6 13.9 0.00 0.00 0.00 60 1003.8
20260504234359 79 155 2.6 10.4 0.00 0.00 0.00 59 1003.8
20260504232244 80 205 2.6 9.6 0.00 0.00 0.00 59 1004.1
20260504231230 80 150 3.5 13.0 0.00 0.00 0.00 58 1004.0
20260504230233 81 192 2.6 13.0 0.00 0.00 0.00 57 1004.1
20260504222942 82 153 3.5 13.0 0.00 0.00 0.00 56 1004.3
20260504221920 82 240 3.5 13.0 0.00 0.00 0.00 57 1004.5
20260504220941 82 153 2.6 13.0 0.00 0.00 0.00 58 1004.5
20260504215913 82 155 2.6 13.0 0.00 0.00 0.00 59 1004.5
20260504214913 81 61 3.5 10.4 0.00 0.00 0.00 56 1004.7
20260504213839 82 198 3.5 10.4 0.00 0.00 0.00 56 1004.9
20260504212901 81 121 2.6 7.8 0.00 0.00 0.00 58 1005.2
20260504211826 82 232 2.6 9.6 0.00 0.00 0.00 55 1005.3
20260504210827 81 294 3.5 9.6 0.00 0.00 0.00 56 1005.5
20260504204701 81 122 2.6 10.4 0.00 0.00 0.00 54 1006.1
20260504203628 81 184 2.6 8.7 0.00 0.00 0.00 56 1006.2
20260504202601 81 244 3.5 10.4 0.00 0.00 0.00 58 1006.3
20260504201543 80 142 3.5 12.2 0.00 0.00 0.00 56 1006.5
20260504200526 80 169 3.5 13.9 0.00 0.00 0.00 56 1006.8
20260504195506 80 234 3.5 13.9 0.00 0.00 0.00 55 1007.1
20260504193340 80 119 2.6 17.4 0.00 0.00 0.00 59 1007.2
20260504192325 80 130 3.5 17.4 0.00 0.00 0.00 55 1007.5
20260504191300 79 247 3.5 9.6 0.00 0.00 0.00 57 1007.6
20260504185030 78 188 2.6 13.0 0.00 0.00 0.00 59 1008.1
20260504183956 78 142 3.5 8.7 0.00 0.00 0.00 57 1008.2
20260504182950 78 143 3.5 9.6 0.00 0.00 0.00 59 1008.4
20260504182006 78 180 3.5 12.2 0.00 0.00 0.00 57 1008.5
20260504181026 77 169 2.6 12.2 0.00 0.00 0.00 58 1008.7
20260504180035 77 94 3.5 10.4 0.00 0.00 0.00 56 1008.9
20260504175021 77 163 3.5 10.4 0.00 0.00 0.00 56 1008.8
20260504173949 77 189 3.5 10.4 0.00 0.00 0.00 57 1009.1
20260504171907 76 208 3.5 12.2 0.00 0.00 0.00 59 1009.4
20260504170840 76 181 2.6 12.2 0.00 0.00 0.00 57 1009.6
20260504141333 68 194 3.5 13.0 0.00 0.00 0.00 67 1011.0
20260504140310 68 255 3.5 12.2 0.00 0.00 0.00 68 1011.2
20260504130324 64 0 0.9 6.1 0.00 0.00 0.00 71 1011.5